CZ-6A DEB

Satellite information

Favourite Embed

Satellite Type and Status

DEBRISIN ORBIT

Key statistics

Satellite CZ-6A DEB at a glance.

Uptime

438

Days in orbit

Revolutions

≈ 14.2

Per day

Orbit

LEO

Low Earth Orbit

Inclination

89.0

Latest

Satellite identification and parameters

Extended collection of information and parameters for CZ-6A DEB.

Object identification

Identified? True

Debris? True

Object name: CZ-6A DEB

International designator: 2024-140QX

Object number (NORAD): 61153

Object ID (CCSDS): 61153

Country: PEOPLES REPUBLIC OF CHINA (PRC)

Current information (Y/N): Y

RCS size: SMALL

Orbital parameters

Period: 101.288 minutes

Inclination: 89.0027 deg

SMA: 7197.797 km

Apoapsis: 849.146 km

Periapsis: 790.178 km

RAAN: 302.2635 deg

Eccentricy: 0.00409628

Argument of periapsis: 272.429 deg

Mean anomaly: 87.2212 deg

Mean motion: 14.21684883 rev/day

Mean motion (dot): 0.00001795 rev/day2

B* drag term: 0.00080486459 1/REarth

Two-line elements (TLE)

Creation date: Oct. 18, 2025, 2:17 a.m.

Reference frame: TEME

Reference center: EARTH

Epoch: Oct. 17, 2025, 11 a.m. UTC

TLE line 0: 0 CZ-6A DEB

TLE line 1: 1 61153U 24140QX 25290.45898567 .00001795 00000-0 80486-3 0 9998

TLE line 2: 2 61153 89.0027 302.2635 0040963 272.4290 87.2212 14.21684883 59880

Live tracking on map

Real-time ground track for satellite CZ-6A DEB.

In-orbit conjunctions

A list of the most updated potential collisions computed for object CZ-6A DEB.

Target Orbit TCA Probability of collision Miss distance Type
FENGYUN 1C DEB SSO 2025-02-21 08:14:56 0.0005505906 562.0 (m) DEBRIS
SL-16 DEB LEO 2025-02-10 05:09:12 0.0004374824 885.0 (m) DEBRIS
COSMOS 886 DEB LEO 2025-02-01 07:33:19 0.00144267 214.0 (m) DEBRIS
THOR BURNER 2 R/B SSO 2025-01-23 14:45:32 0.0006627538 400.0 (m) ROCKET BODY
FENGYUN 1C DEB SSO 2025-01-20 02:11:36 0.001295317 65.0 (m) DEBRIS

Associated space launch

18 Low Earth Orbit communication satellites with Ku, Q and V band payloads for the G60 constellation operated by Shanghai Spacecom Satellite Technology (SSST) with funding backed by the Shanghai local government. Initial constellation will consist of 1296 satellites by 2027 with long term plans to expand it to 12000 satellites.

CZ-6A DEB was lifted into orbit during the mission ‘Long March 6A | G60 Polar Group 01’, on board a Long March 6A space rocket.

The launch took place on Aug. 6, 2024, 6:42 a.m. from Launch Complex 9A.

For more information about the launch, click the button.

Launch to space Long March 6A | G60 Polar Group 01
Long March 6A | G60 Polar Group 01

Agency: N/A

Status: Launch Successful

Launch date: Aug. 6, 2024, 6:42 a.m. UTC

Rocket: Long March 6A

Launch pad: Launch Complex 9A

Location: Taiyuan Satellite Launch Center, People's Republic of China

...

Latest news about this satellite

News about space launch
Brightness of first Chinese broadband constellation satellites alarms astronomers

The first satellites of a Chinese broadband constellation are significantly brighter than those of Western systems, posing a new challenge for astronomers.

News about space launch
Chinese rocket stage breaks up into cloud of more than 700 pieces of space debris

HELSINKI — A Chinese Long March 6A rocket’s upper stage has fragmented into a cloud of over 700 pieces of space debris, adding to concerns about long-term orbital safety. China […]

News about space launch
China's Thousand Sails Megaconstellation Kicks Off with Dangerous Debris Field

China's Thousand Sails Megaconstellation Kicks Off with Dangerous Debris Field


Newsletter sign-up

Weekly statistics, charts and insights to help you stay on top of the space industry.